Welcome to the New NWS' Forecast!
Most changes are behind the scenes, but click here for differences you might notice.
Latest weather observations around

Mount Ida (KMWT)

Using English Units (Switch to International System of Units)
Date/ Time (CST) Wind (mph) Vis. (mi) Weather Sky Cond. Temp (°F) Rel. Humidity Wind Chill (°F) Heat Index (°F) Pressure Precip. (in)
Air Dwpt 6 hour Altimeter (inHg) Sea level (inHg) 1 hr 3 hr 6 hr
Max Min
Nov 18 01:53 7 10 Cloudy BKN022 OVC029 73 66     79%   74 29.64 29.61      
Nov 18 00:53   10 Cloudy BKN024 OVC030 73 66     79%   74 29.66 29.63      
Nov 17 23:53   10 Cloudy BKN026 OVC035 74 65     74%   74 29.69 29.66      
Nov 17 23:07 WSW 9 10 Cloudy BKN026 BKN034 OVC045 74 65     74%   74 29.7        
Nov 17 22:53   10 Mostly Cloudy SCT028 BKN034 74 65     74%   74 29.7 29.67      
Nov 17 21:53 5 10 Clear CLR 73 65     76%   74 29.7 29.68      
Nov 17 20:53 6 10 Mostly Cloudy BKN047 73 65     76%   74 29.72 29.7      
Nov 17 19:53 5 10 Partly Cloudy FEW028 FEW035 SCT050 73 65     76%   74 29.73 29.71      
Nov 17 18:53 Calm 10 Mostly Cloudy SCT027 SCT034 BKN049 73 65     76%   74 29.74 29.72      
Nov 17 17:53 6 10 Partly Cloudy SCT027 73 65     76%   74 29.74 29.72      
Nov 17 17:42 SSW 9 10 Partly Cloudy SCT027 73 65     76%   74 29.74        
Nov 17 17:14 SSW 9 10 Mostly Cloudy BKN027 BKN032 73 65     76%   74 29.74        
Nov 17 16:53 SW 9 10 Mostly Cloudy BKN030 73 65     76%   74 29.73 29.72      
Nov 17 15:53 SSW 10 10 Cloudy SCT031 OVC048 73 64     73%   73 29.76 29.75      
Nov 17 14:53   10 Mostly Cloudy FEW029 SCT034 BKN044 74 64     71%   74 29.77 29.75      
Nov 17 14:16 SW 9 10 Cloudy SCT024 BKN033 OVC048 74 64     71%   74 29.78        
Nov 17 13:53 7 10 Cloudy BKN023 BKN029 OVC038 73 64     73%   73 29.8 29.78      
Nov 17 13:02 SW 8 10 Cloudy OVC015 70 64     81%     29.82        
Nov 17 12:53 7 10 Cloudy OVC014 69 64     84%     29.83 29.81      
Nov 17 12:22 5 9 Cloudy OVC011 67 63     87%     29.86        
Nov 17 11:53 5 8 Cloudy OVC009 66 63     90%     29.88 29.87      
Nov 17 10:53 5 10 Cloudy OVC008 65 62     90%     29.92 29.91      
Nov 17 09:53 5 5 Fog/Mist OVC008 61 59     93%     29.95 29.95      
Nov 17 09:21 5 3 Fog/Mist OVC007 61 59     93%     29.96        
Nov 17 09:12 3 2.5 Fog/Mist OVC007 60 59     96%     29.97        
Nov 17 09:01 SSE 8 3 Fog/Mist OVC008 60 59     96%     29.97        
Nov 17 08:53 6 2.5 Fog/Mist OVC008 60 58     93%     29.97 29.97      
Nov 17 08:33   6 Fog/Mist OVC008 61 58     90%     29.99        
Nov 17 07:53 5 10 Cloudy OVC013 61 57     87%     29.98 29.97      
Nov 17 06:53 Calm 10 Cloudy OVC013 58 55     90%     30 29.99      
Nov 17 05:53 SE 7 10 Cloudy OVC014 58 54     87%     30 29.99      
Nov 17 05:20 ESE 3 10 Cloudy OVC014 58 54     87%     30.01        
Nov 17 04:53 3 10 Cloudy OVC016 58 54     87%     30.02 30.01      
Nov 17 03:53 3 10 Cloudy OVC019 58 53     84%     30.03 30.03      
Nov 17 02:53 E 3 10 Clear   58 53     84%     30.03 30.03      
Nov 17 01:53 Calm 10 Cloudy OVC022 58 52     81%     30.04 30.04      
Nov 17 00:53 ESE 3 10 Cloudy BKN016 OVC023 58 51     78%     30.05 30.04      
Nov 16 23:53 3 10 Cloudy OVC016 58 51     78%     30.06 30.06      
Nov 16 23:28 Calm 10 Mostly Cloudy BKN019 BKN037 57 51     81%     30.07        
Nov 16 23:09 SE 5 10 Mostly Cloudy FEW019 SCT027 BKN037 57 50     77%     30.07        
Nov 16 22:53 5 10 Cloudy FEW017 BKN026 OVC035 58 50     75%     30.07 30.07      
Nov 16 21:53 ESE 5 10 Cloudy OVC017 57 49     74%     30.09 30.09      
Nov 16 20:53 Calm 10 Cloudy OVC016 58 48     70%     30.09 30.09      
Nov 16 19:53 ESE 5 10 Cloudy OVC016 58 47     67%     30.1 30.09      
Nov 16 18:53 ESE 3 10 Cloudy OVC021 58 47     67%     30.1 30.1      
Nov 16 17:53 Calm 10 Cloudy OVC022 57 48     72%     30.09 30.09      
Nov 16 16:53 Calm 10 Cloudy BKN022 OVC044 58 47     67%     30.09 30.09      
Nov 16 16:45 Calm 10 Cloudy BKN024 OVC044 58 47     67%     30.09        
Nov 16 16:02 Calm 10 Cloudy SCT025 OVC042 59 45     60%     30.1        
Nov 16 14:53 3 10 Cloudy OVC025 59 44     58%     30.1 30.09      
Nov 16 13:53 5 10 Cloudy OVC025 60 44     55%     30.11 30.1      
Nov 16 12:53 ESE 3 10 Cloudy OVC022 58 42     55%     30.14 30.13      
Nov 16 11:53 5 10 Cloudy OVC024 57 41     55%     30.16 30.16      
Nov 16 10:53 5 10 Cloudy OVC028 56 40     55%     30.19 30.19      
Nov 16 09:53 6 10 Cloudy BKN028 OVC047 56 44     64%     30.2 30.2      
Nov 16 08:53 Calm 10 Cloudy OVC027 54 46     74%     30.19 30.19      
Nov 16 08:26 Calm 10 Cloudy OVC027 53 47     80%     30.19        
Nov 16 07:53 Calm 10 Cloudy BKN033 OVC043 53 48     83%     30.18 30.18      
Nov 16 06:53 Calm 10 Cloudy BKN032 OVC041 52 49     89%     30.16 30.16      
Nov 16 05:53 Calm 10 Cloudy OVC039 52 51     97%     30.14 30.14      
Nov 16 05:01 Calm 3 Fog/Mist OVC040 52 52     100%     30.14        
Nov 16 04:53 Calm 2.5 Fog/Mist FEW002 OVC041 51 51     100%     30.14 30.14      
Nov 16 04:45 Calm 0.75 Fog/Mist FEW002 BKN042 51 51     100%     30.14        
Nov 16 04:33 Calm 0.25 Fog SCT002 BKN042 51 51     100%     30.14        
Nov 16 04:15 Calm 0.75 Fog/Mist VV002 52 51     97%     30.13        
Nov 16 04:03 Calm 1 Fog/Mist CLR 53 53     100%     30.13        
Nov 16 03:53 Calm 2.5 Fog/Mist FEW048 53 53     100%     30.14 30.13      
Nov 16 03:11 Calm 3 Fog/Mist SCT049 54 54     100%     30.13        
Nov 16 03:06 Calm 1.75 Fog/Mist BKN049 54 54     100%     30.13        
Nov 16 02:53 Calm 2 Fog/Mist BKN049 54 54     100%     30.14 30.13      
Nov 16 02:22 Calm 1.75 Fog/Mist FEW014 BKN048 54 54     100%     30.13        
Nov 16 02:15 Calm 3 Fog/Mist FEW014 BKN048 54 54     100%     30.13        
Nov 16 02:05 Calm 1.25 Fog/Mist FEW010 BKN048 54 54     100%     30.13        
Nov 16 01:57 Calm 2.5 Fog/Mist FEW004 SCT010 BKN048 55 55     100%     30.13        
Nov 16 01:53 Calm 3 Fog/Mist SCT004 BKN010 BKN048 55 55     100%     30.12 30.11      
Nov 16 01:49 Calm 4 Fog/Mist SCT004 BKN010 BKN048 55 55     100%     30.12        
Nov 16 01:25 Calm 2 Fog/Mist OVC003 56 55     97%     30.13        
Nov 16 01:21 Calm 0.75 Fog/Mist OVC003 55 55     100%     30.13        
Nov 16 01:02 Calm 0.25 Fog VV003 54 54     100%     30.12        
Nov 16 00:53 Calm 0.5 Fog VV003 54 54     100%     30.12 30.11      
Nov 15 23:53 Calm 1.5 Fog/Mist BKN049 BKN060 56 56     100%     30.14 30.13      
Nov 15 23:35 Calm 1.75 Fog/Mist SCT049 BKN065 57 56     96%     30.13        
Nov 15 22:53 Calm 3 Fog/Mist OVC050 57 57     100%     30.12 30.11      
Nov 15 21:53 Calm 5 Fog/Mist FEW065 58 57     97%     30.11 30.1      
Nov 15 20:53 Calm 8 Partly Cloudy SCT050 SCT065 59 58     96%     30.11 30.09      
Nov 15 19:53 Calm 9 Cloudy BKN044 OVC055 61 60     97%     30.09 30.08      
Nov 15 18:53 Calm 9 Cloudy SCT027 OVC043 62 60     93%     30.09 30.08      
Nov 15 18:20 Calm 9 Cloudy SCT026 OVC042 62 61     96%     30.07        
Nov 15 17:53 Calm 9 Cloudy OVC022 62 61     96%     30.06 30.05     0
Nov 15 17:00 3 3 Fog/Mist SCT009 BKN015 OVC026 63 62     97%     30.05        
Nov 15 16:53 Calm 3 Fog/Mist SCT009 BKN013 OVC030 63 62     97%     30.05 30.04      
Nov 15 16:37 Calm 4 Fog/Mist FEW009 BKN026 OVC030 63 62     97%     30.05        
Nov 15 16:24 Calm 4 Fog/Mist BKN009 BKN015 OVC024 63 62     97%     30.04        
Nov 15 16:15 Calm 2 Fog/Mist BKN009 OVC015 63 63     100%     30.04        
Nov 15 16:08 3 1.75 Fog/Mist OVC011 63 62     97%     30.04        
Nov 15 15:53 NNW 6 4 Fog/Mist OVC013 64 62     93%     30.03 30.02      
Nov 15 15:37 NW 3 7 Cloudy OVC014 64 63     96%     30.02        
Nov 15 14:53 Calm 8 Cloudy OVC018 64 63     96%     30 29.99   0  
Nov 15 13:53 Calm 6 Fog/Mist OVC021 64 63     96%     30.01 30 0    
Nov 15 12:53 Calm 5 Light Rain and Fog/Mist OVC024 64 63     96%     30.02 30 0    
Nov 15 11:53 Calm 10 Cloudy OVC028 65 62     90%     30.02 30.01 0   0
Nov 15 11:42 Calm 6 Light Rain OVC028 65 60     84%     30.03   0    
Nov 15 10:53 6 10 Cloudy BKN034 OVC044 69 56     63%     30.03 30.02      
Nov 15 09:53 3 10 Mostly Cloudy FEW040 BKN080 66 55     68%     30.02 30.01      
Nov 15 08:53 5 10 Mostly Cloudy BKN090 64 54     70%     30.02 30.01      
Nov 15 07:53 Calm 10 Cloudy OVC090 61 54     78%     30.01 30      
Nov 15 06:53 Calm 10 Cloudy SCT043 OVC060 60 53     78%     30 29.99      
Nov 15 05:53 Calm 10 Cloudy OVC085 61 52     72%     29.99 29.98      
Nov 15 04:53   10 Cloudy BKN048 OVC080 62 51     67%     29.99 29.98      
Nov 15 03:53 Calm 10 Cloudy OVC080 59 51     75%     29.98 29.98      
Nov 15 02:53 Calm 10 Cloudy OVC075 56 50     80%     29.99 29.99      
Jun 12 07:23 Calm 2.5 Fog/Mist OVC009 74 72     94%   75 30        
Jun 12 00:53 SE 7 10 Cloudy BKN021 OVC028 76 69     79%   77 29.97 29.93      
Jun 11 20:53 Calm 10 Clear CLR 77 64     64%   77 29.95 29.92      
Jun 11 18:53 SE 6 10 Clear CLR 85 60     43%   85 29.94 29.9      
Jun 11 11:53   10 Partly Cloudy FEW038 SCT047 83 64     53%   84 30.01 29.97      
Jun 08 12:53 NNE 3 10 Partly Cloudy SCT060 79 50     36%   78 30.01 29.99      
Jun 06 06:31 Calm 2 Fog/Mist BKN002 64 63     96%     29.83        
Jun 06 04:56 Calm 2.5 Fog/Mist SCT002 BKN010 65 63     93%     29.82        
Jun 06 03:23 Calm 2 Fog/Mist SCT002 66 64     93%     29.81        
Jun 06 02:33 Calm 2 Fog/Mist SCT002 66 64     93%     29.81        
Jun 05 22:28 Calm 1.5 Clear   70 68     93%     29.81